Group_ship,Cruise,JD_GMT,Date_DDMMYYYY,TIME_HH:MM:SS,Lat_dec_degree,Long_dec_degree,xCO2eq_ppm,xCO2a_ppm,Pres_Equi_hPa,Pres_sealevel_hPa,EqTemp_C,SST(TSG)_C,Sal(TSG)_Permil,Water_flow_l/min,Gasflow_IR_ml/min,Temp_IR_C,Pres_IR_hPa,Ship_heading_true_degree,Ship_speed_knot,Wind_dir_rel_degree,Wind_speed_rel_m/s,fCO2W@SST_uatm,Qcflag_water,fCO2a_uatm,Qcflag_air,dfCO2_uatm,Fluoro_ug/l,Wind_speed_true_m/s,Wind_dir_true_degree,Air_temp_C,Oxygen
AOML_Explorer,Ex0740NE,271.984,28092007,23:36:58,40.413,-73.595,357.59,-9.00,1012.79,1009.40,21.62,21.52,31.630,1.508,99.451,31.743,1012.790,97.500,14.200,257.000,8.750,345.87,2,-9.00,9,-9.00,0.17,12.59,319.73,20.7,255.80
AOML_Explorer,Ex0740NE,271.986,28092007,23:39:31,40.412,-73.582,369.06,-9.00,1012.65,1009.60,21.64,21.51,31.578,1.416,99.441,31.744,1012.646,97.300,14.100,271.000,6.691,356.45,2,-9.00,9,-9.00,0.17,9.78,320.12,20.79,254.82
AOML_Explorer,Ex0740NE,271.988,28092007,23:42:04,40.411,-73.569,375.19,-9.00,1012.65,1009.80,21.59,21.47,31.555,1.455,99.746,31.749,1012.645,97.300,14.100,265.000,7.206,362.61,2,-9.00,9,-9.00,0.19,10.69,319.10,20.9,254.50
AOML_Explorer,Ex0740NE,271.989,28092007,23:44:37,40.409,-73.556,378.31,-9.00,1012.75,1009.50,21.56,21.40,31.508,1.501,99.488,31.749,1012.748,97.000,14.100,287.000,6.176,365.13,2,-9.00,9,-9.00,0.20,8.06,324.34,21,255.23
AOML_Explorer,Ex0740NE,271.991,28092007,23:47:10,40.408,-73.543,379.90,-9.00,1012.66,1009.50,21.51,21.40,31.485,1.477,99.643,31.751,1012.660,97.600,14.100,274.000,7.206,367.33,2,-9.00,9,-9.00,0.20,9.86,324.11,20.98,255.73
AOML_Explorer,Ex0740NE,271.993,28092007,23:49:43,40.407,-73.531,381.19,-9.00,1012.71,1009.50,21.51,21.41,31.515,1.510,99.733,31.759,1012.711,97.200,14.100,271.000,8.235,368.84,2,-9.00,9,-9.00,0.19,10.92,326.38,20.89,255.50
AOML_Explorer,Ex0740NE,271.995,28092007,23:52:16,40.406,-73.518,383.05,-9.00,1012.76,1009.50,21.51,21.44,31.541,1.471,99.704,31.763,1012.759,96.800,14.100,273.000,9.265,371.14,2,-9.00,9,-9.00,0.16,11.46,330.46,21.03,254.84
AOML_Explorer,Ex0740NE,271.996,28092007,23:54:49,40.405,-73.505,385.10,-9.00,1012.73,1009.80,21.52,21.49,31.593,1.513,99.547,31.767,1012.727,97.200,14.100,269.000,6.691,373.52,2,-9.00,9,-9.00,0.16,9.93,319.43,21.05,253.79
AOML_Explorer,Ex0740NE,271.998,28092007,23:57:22,40.404,-73.492,387.16,-9.00,1012.79,1009.50,21.55,21.52,31.654,1.505,99.306,31.771,1012.792,97.000,14.100,278.000,7.721,375.67,2,-9.00,9,-9.00,0.15,9.85,327.83,21.04,252.69
AOML_Explorer,Ex0740NE,272.000,28092007,23:59:55,40.402,-73.479,389.16,-9.00,1012.78,1009.80,21.58,21.49,31.698,1.530,98.963,31.776,1012.782,96.700,14.100,236.000,7.206,376.64,2,-9.00,9,-9.00,0.15,12.78,304.40,21.14,251.56
AOML_Explorer,Ex0740NE,272.015,29092007,0:21:40,40.392,-73.369,398.94,-9.00,1013.15,1010.20,21.56,21.47,31.675,1.486,100.159,31.849,1013.147,98.000,14.100,262.000,5.662,386.09,2,-9.00,9,-9.00,0.12,9.90,312.34,21.08,249.94
AOML_Explorer,Ex0740NE,272.017,29092007,0:24:13,40.390,-73.356,400.54,-9.00,1013.15,1010.40,21.56,21.54,31.689,1.523,100.286,31.850,1013.153,97.400,14.100,243.000,6.176,388.80,2,-9.00,9,-9.00,0.13,11.47,305.78,21.07,250.36
AOML_Explorer,Ex0740NE,272.019,29092007,0:26:46,40.389,-73.343,401.02,-9.00,1013.26,1010.40,21.57,21.62,31.677,1.510,100.209,31.852,1013.259,97.800,14.100,247.000,4.632,390.43,2,-9.00,9,-9.00,0.17,10.04,302.55,21.07,252.32
AOML_Explorer,Ex0740NE,272.020,29092007,0:29:19,40.388,-73.330,397.96,-9.00,1013.32,1010.50,21.62,21.61,31.671,1.516,100.236,31.847,1013.316,97.600,14.100,284.000,3.088,386.50,2,-9.00,9,-9.00,0.15,7.18,302.32,21.09,254.51
AOML_Explorer,Ex0740NE,272.022,29092007,0:31:52,40.386,-73.318,391.52,-9.00,1013.29,1010.50,21.68,21.53,31.715,1.527,100.959,31.847,1013.293,97.100,14.100,242.000,6.691,378.03,2,-9.00,9,-9.00,0.15,12.01,306.37,21.06,252.80
AOML_Explorer,Ex0740NE,272.024,29092007,0:34:25,40.385,-73.305,385.76,-9.00,1013.36,1010.80,21.69,21.55,31.703,1.521,99.955,31.843,1013.356,97.000,14.200,238.000,5.662,372.77,2,-9.00,9,-9.00,0.15,11.39,301.71,21.06,251.80
AOML_Explorer,Ex0740NE,272.026,29092007,0:36:58,40.384,-73.292,387.05,-9.00,1013.40,1010.70,21.63,21.52,31.722,1.497,100.355,31.839,1013.398,97.000,14.100,255.000,7.721,374.55,2,-9.00,9,-9.00,0.15,11.90,315.78,21.05,250.99
AOML_Explorer,Ex0740NE,272.027,29092007,0:39:31,40.383,-73.279,388.69,-9.00,1013.44,1010.80,21.64,21.55,31.704,1.523,100.090,31.838,1013.443,97.400,14.100,259.000,5.662,376.46,2,-9.00,9,-9.00,0.16,10.05,310.91,21.04,249.65
AOML_Explorer,Ex0740NE,272.029,29092007,0:42:04,40.381,-73.266,391.75,-9.00,1013.44,1010.80,21.64,21.59,31.660,1.499,100.433,31.837,1013.445,96.800,14.100,243.000,8.235,379.90,2,-9.00,9,-9.00,0.16,13.25,309.93,20.97,249.42
AOML_Explorer,Ex0740NE,272.031,29092007,0:44:37,40.380,-73.253,393.14,-9.00,1013.38,1010.60,21.65,21.53,31.609,1.534,100.125,31.833,1013.384,97.400,14.100,245.000,8.750,380.17,2,-9.00,9,-9.00,0.14,13.57,313.04,20.81,250.32
AOML_Explorer,Ex0740NE,272.033,29092007,0:47:10,40.379,-73.240,390.34,-9.00,1013.47,1010.80,21.67,21.51,31.561,1.517,99.953,31.828,1013.467,97.400,14.000,253.000,8.235,376.78,2,-9.00,9,-9.00,0.14,12.54,315.85,20.69,251.48
AOML_Explorer,Ex0740NE,272.035,29092007,0:49:43,40.378,-73.228,382.85,-9.00,1013.28,1010.60,21.64,21.46,31.485,1.526,100.023,31.829,1013.284,97.900,13.900,252.000,7.206,369.20,2,-9.00,9,-9.00,0.13,11.72,313.45,20.55,252.21
AOML_Explorer,Ex0740NE,272.036,29092007,0:52:16,40.376,-73.215,371.40,-9.00,1013.30,1010.60,21.62,21.39,31.392,1.515,99.986,31.823,1013.296,98.300,13.900,254.000,9.265,357.62,2,-9.00,9,-9.00,0.13,13.29,319.91,20.43,252.40
AOML_Explorer,Ex0740NE,272.038,29092007,0:54:49,40.375,-73.202,361.44,-9.00,1013.33,1010.70,21.57,21.42,31.399,1.502,100.432,31.823,1013.327,98.200,14.000,261.000,9.265,349.05,2,-9.00,9,-9.00,0.13,12.73,323.86,20.32,251.62
AOML_Explorer,Ex0740NE,272.040,29092007,0:57:22,40.373,-73.189,353.93,-9.00,1013.39,1010.50,21.52,21.38,31.392,1.503,100.357,31.824,1013.389,97.800,13.900,254.000,8.235,342.03,2,-9.00,9,-9.00,0.13,12.40,317.35,20.12,251.61
AOML_Explorer,Ex0740NE,272.057,29092007,1:21:40,40.367,-73.068,335.20,-9.00,1013.20,1010.40,21.23,20.95,31.523,1.521,100.333,31.867,1013.200,89.200,14.000,250.000,9.265,322.18,2,-9.00,9,-9.00,0.16,13.78,307.69,20.03,264.63
AOML_Explorer,Ex0740NE,272.058,29092007,1:24:13,40.367,-73.055,340.28,-9.00,1013.23,1010.10,21.19,20.85,31.586,1.499,101.206,31.867,1013.230,89.600,14.000,264.000,6.176,326.21,2,-9.00,9,-9.00,0.16,10.16,306.64,20.07,261.68
AOML_Explorer,Ex0740NE,272.060,29092007,1:26:46,40.367,-73.042,346.32,-9.00,1013.32,1010.10,21.12,20.80,31.605,1.492,100.435,31.863,1013.320,88.200,14.000,259.000,8.750,332.40,2,-9.00,9,-9.00,0.17,12.59,310.94,20.03,259.98
AOML_Explorer,Ex0740NE,272.062,29092007,1:29:19,40.368,-73.029,354.71,-9.00,1013.31,1010.00,21.03,20.80,31.656,1.510,100.428,31.859,1013.307,88.700,14.000,268.000,7.206,341.80,2,-9.00,9,-9.00,0.17,10.60,311.52,20.04,259.36
AOML_Explorer,Ex0740NE,272.064,29092007,1:31:52,40.368,-73.016,363.36,-9.00,1013.41,1010.10,20.98,20.61,31.766,1.500,100.222,31.855,1013.409,88.500,14.100,262.000,10.294,348.23,2,-9.00,9,-9.00,0.17,13.71,316.31,20.04,258.81
AOML_Explorer,Ex0740NE,272.066,29092007,1:34:25,40.368,-73.003,371.15,-9.00,1013.29,1010.30,20.96,20.47,31.838,1.516,100.378,31.847,1013.291,88.400,14.100,263.000,9.265,353.88,2,-9.00,9,-9.00,0.15,12.67,314.77,20.01,257.94
AOML_Explorer,Ex0740NE,272.067,29092007,1:36:58,40.368,-72.990,381.06,-9.00,1013.44,1010.60,20.81,20.42,31.891,1.534,100.484,31.836,1013.444,87.500,14.000,265.000,9.265,365.00,2,-9.00,9,-9.00,0.15,12.40,315.89,19.98,257.47
AOML_Explorer,Ex0740NE,272.069,29092007,1:39:31,40.368,-72.977,392.85,-9.00,1013.45,1010.40,20.69,20.26,32.012,1.546,100.516,31.833,1013.453,91.100,14.100,264.000,8.235,375.65,2,-9.00,9,-9.00,0.14,11.68,315.63,19.99,256.85
AOML_Explorer,Ex0740NE,272.071,29092007,1:42:04,40.368,-72.964,403.47,-9.00,1013.59,1010.90,20.62,20.22,31.957,1.513,96.868,31.830,1013.593,94.900,14.200,253.000,7.206,386.30,2,-9.00,9,-9.00,0.15,11.75,310.59,19.96,257.21
AOML_Explorer,Ex0740NE,272.073,29092007,1:44:37,40.367,-72.951,413.41,-9.00,1013.61,1010.90,20.50,20.19,31.973,1.504,100.486,31.825,1013.609,93.800,14.100,251.000,7.721,397.57,2,-9.00,9,-9.00,0.13,12.32,310.43,19.93,257.22
AOML_Explorer,Ex0740NE,272.074,29092007,1:47:10,40.366,-72.938,420.13,-9.00,1013.56,1010.60,20.46,20.18,31.965,1.509,99.985,31.817,1013.558,95.200,14.100,245.000,5.147,404.41,2,-9.00,9,-9.00,0.13,10.65,300.89,19.88,257.66
AOML_Explorer,Ex0740NE,272.076,29092007,1:49:43,40.365,-72.925,423.88,-9.00,1013.60,1010.80,20.43,20.07,31.992,1.440,100.526,31.815,1013.601,92.600,14.200,264.000,7.206,406.64,2,-9.00,9,-9.00,0.15,10.91,314.02,19.92,258.09
AOML_Explorer,Ex0740NE,272.078,29092007,1:52:16,40.365,-72.912,426.20,-9.00,1013.67,1010.60,20.41,20.21,31.980,1.495,100.352,31.810,1013.670,92.200,14.200,262.000,7.721,411.60,2,-9.00,9,-9.00,0.13,11.54,314.11,19.84,257.90
AOML_Explorer,Ex0740NE,272.080,29092007,1:54:49,40.364,-72.899,427.69,-9.00,1013.75,1011.00,20.34,20.19,32.025,1.514,100.360,31.807,1013.749,92.700,14.100,274.000,7.721,414.02,2,-9.00,9,-9.00,0.14,10.41,320.81,19.82,257.34
AOML_Explorer,Ex0740NE,272.082,29092007,1:57:22,40.364,-72.886,428.08,-9.00,1013.66,1011.10,20.41,20.15,32.052,1.520,100.320,31.801,1013.664,92.300,14.100,247.000,7.206,412.40,2,-9.00,9,-9.00,0.14,12.17,305.06,19.79,257.02
AOML_Explorer,Ex0740NE,272.083,29092007,1:59:55,40.363,-72.873,427.99,-9.00,1013.67,1011.00,20.41,20.22,32.039,1.522,100.251,31.798,1013.667,92.800,14.100,259.000,8.235,413.61,2,-9.00,9,-9.00,0.14,12.14,314.47,19.73,256.98
AOML_Explorer,Ex0740NE,272.098,29092007,2:21:40,40.361,-72.762,424.14,-9.00,1013.92,1011.20,20.40,20.24,31.928,1.498,100.324,31.817,1013.916,89.400,14.200,260.000,7.721,410.47,2,-9.00,9,-9.00,0.15,11.68,309.84,19.44,261.87
AOML_Explorer,Ex0740NE,272.100,29092007,2:24:13,40.361,-72.749,424.74,-9.00,1013.81,1010.90,20.43,20.20,31.904,1.501,100.254,31.809,1013.814,90.000,14.200,263.000,7.206,409.82,2,-9.00,9,-9.00,0.18,11.06,310.13,19.39,260.40
AOML_Explorer,Ex0740NE,272.102,29092007,2:26:46,40.361,-72.736,424.85,-9.00,1013.82,1011.00,20.44,20.27,31.881,1.517,100.359,31.806,1013.820,89.800,14.200,251.000,7.721,410.95,2,-9.00,9,-9.00,0.16,12.39,305.82,19.35,261.45
AOML_Explorer,Ex0740NE,272.104,29092007,2:29:19,40.361,-72.723,424.85,-9.00,1013.72,1011.10,20.42,20.33,31.937,1.494,100.159,31.803,1013.724,87.900,14.200,260.000,8.750,412.25,2,-9.00,9,-9.00,0.14,12.60,310.70,19.36,260.19
AOML_Explorer,Ex0740NE,272.105,29092007,2:31:52,40.361,-72.710,424.34,-9.00,1013.76,1011.20,20.46,20.42,32.032,1.536,100.498,31.796,1013.756,87.700,14.200,255.000,9.779,412.63,2,-9.00,9,-9.00,0.13,13.82,310.64,19.37,258.16
AOML_Explorer,Ex0740NE,272.107,29092007,2:34:25,40.362,-72.697,423.99,-9.00,1013.86,1010.90,20.51,20.52,32.078,1.493,100.255,31.792,1013.863,87.900,14.200,256.000,8.235,413.01,2,-9.00,9,-9.00,0.12,12.47,307.49,19.38,257.47
AOML_Explorer,Ex0740NE,272.109,29092007,2:36:58,40.362,-72.683,423.49,-9.00,1013.80,1010.90,20.59,20.56,32.123,1.493,100.482,31.780,1013.802,85.400,14.200,253.000,11.323,411.84,2,-9.00,9,-9.00,0.12,15.42,309.59,19.37,255.75
AOML_Explorer,Ex0740NE,272.111,29092007,2:39:31,40.363,-72.670,423.15,-9.00,1013.78,1010.90,20.67,20.60,32.154,1.514,101.552,31.774,1013.777,85.800,14.200,254.000,10.809,410.79,2,-9.00,9,-9.00,0.11,14.82,309.92,19.37,256.18
AOML_Explorer,Ex0740NE,272.113,29092007,2:42:04,40.363,-72.657,423.40,-9.00,1014.00,1010.80,20.71,20.52,32.151,1.491,100.473,31.765,1014.001,85.900,14.200,253.000,9.265,408.96,2,-9.00,9,-9.00,0.12,13.57,306.07,19.35,255.22
AOML_Explorer,Ex0740NE,272.114,29092007,2:44:37,40.364,-72.644,423.71,-9.00,1013.94,1011.10,20.75,20.49,32.120,1.521,100.366,31.758,1013.939,85.900,14.200,247.000,9.265,408.22,2,-9.00,9,-9.00,0.12,14.06,302.99,19.31,257.73
AOML_Explorer,Ex0740NE,272.116,29092007,2:47:10,40.365,-72.631,424.21,-9.00,1013.79,1011.20,20.69,20.44,32.063,1.507,100.317,31.754,1013.789,86.400,14.200,258.000,9.779,408.77,2,-9.00,9,-9.00,0.13,13.62,310.72,19.29,257.65
AOML_Explorer,Ex0740NE,272.118,29092007,2:49:43,40.365,-72.618,425.26,-9.00,1013.90,1011.10,20.67,20.54,32.043,1.510,100.487,31.748,1013.903,86.000,14.200,251.000,8.750,411.80,2,-9.00,9,-9.00,0.13,13.29,304.27,19.3,264.36
AOML_Explorer,Ex0740NE,272.120,29092007,2:52:16,40.366,-72.604,426.60,-9.00,1014.03,1010.40,20.64,20.70,32.120,1.506,100.391,31.743,1014.025,86.600,14.100,249.000,8.235,416.50,2,-9.00,9,-9.00,0.13,12.97,302.50,19.23,257.63
AOML_Explorer,Ex0740NE,272.121,29092007,2:54:49,40.367,-72.591,427.11,-9.00,1013.87,1011.20,20.71,20.59,32.177,1.518,100.826,31.736,1013.869,86.100,14.200,294.000,5.662,413.70,2,-9.00,9,-9.00,0.13,7.44,311.77,19.24,254.75
AOML_Explorer,Ex0740NE,272.123,29092007,2:57:22,40.367,-72.578,426.03,-9.00,1013.97,1011.10,20.82,20.60,32.138,1.516,100.529,31.731,1013.967,87.300,14.200,246.000,13.897,411.14,2,-9.00,9,-9.00,0.13,18.40,309.20,19.17,262.46
AOML_Explorer,Ex0740NE,272.125,29092007,2:59:55,40.368,-72.565,424.37,-9.00,1013.87,1011.10,20.76,20.62,32.202,1.492,100.287,31.728,1013.869,86.800,14.200,247.000,9.779,410.77,2,-9.00,9,-9.00,0.14,14.51,304.07,19.16,258.63
AOML_Explorer,Ex0740NE,272.140,29092007,3:21:40,40.373,-72.453,417.28,-9.00,1013.93,1010.40,20.74,20.45,32.548,1.509,100.297,31.737,1013.929,87.600,14.300,263.000,10.294,401.41,2,-9.00,9,-9.00,0.12,13.69,314.38,18.89,254.05
AOML_Explorer,Ex0740NE,272.142,29092007,3:24:13,40.373,-72.440,417.95,-9.00,1014.00,1010.00,20.67,20.30,32.521,1.480,100.861,31.736,1013.998,87.200,14.200,265.000,9.265,400.95,2,-9.00,9,-9.00,0.13,12.62,312.99,18.89,262.26
AOML_Explorer,Ex0740NE,272.144,29092007,3:26:46,40.374,-72.427,417.75,-9.00,1014.00,1010.90,20.64,20.35,32.453,1.508,100.349,31.729,1013.997,87.500,14.200,265.000,10.809,402.14,2,-9.00,9,-9.00,0.10,13.88,317.53,18.83,257.79
AOML_Explorer,Ex0740NE,272.145,29092007,3:29:19,40.374,-72.414,417.82,-9.00,1013.98,1010.50,20.54,20.33,32.405,1.532,100.046,31.724,1013.981,87.300,14.100,262.000,9.779,403.48,2,-9.00,9,-9.00,0.11,13.33,312.86,18.84,257.37
AOML_Explorer,Ex0740NE,272.147,29092007,3:31:52,40.375,-72.401,418.71,-9.00,1014.02,1010.40,20.53,20.40,32.383,1.500,100.421,31.718,1014.020,87.900,14.100,277.000,7.206,405.76,2,-9.00,9,-9.00,0.11,9.94,313.96,18.77,260.01
AOML_Explorer,Ex0740NE,272.149,29092007,3:34:25,40.375,-72.388,419.86,-9.00,1013.92,1010.70,20.53,20.43,32.376,1.537,100.489,31.711,1013.924,87.500,14.000,267.000,9.779,407.31,2,-9.00,9,-9.00,0.11,12.85,316.26,18.77,255.35
AOML_Explorer,Ex0740NE,272.151,29092007,3:36:58,40.376,-72.375,420.40,-9.00,1013.95,1010.60,20.58,20.45,32.366,1.504,100.192,31.703,1013.947,87.500,6.900,270.000,8.750,407.29,2,-9.00,9,-9.00,0.11,11.74,315.49,18.85,255.87
AOML_Explorer,Ex0740NE,272.152,29092007,3:39:31,40.376,-72.375,420.21,-9.00,1013.90,1010.60,20.61,20.48,32.378,1.508,100.346,31.697,1013.899,0.000,0.000,264.000,8.750,407.07,2,-9.00,9,-9.00,0.10,12.27,311.76,18.85,257.27
AOML_Explorer,Ex0740NE,272.154,29092007,3:42:04,40.376,-72.375,420.18,-9.00,1014.00,1010.70,20.63,20.43,32.390,1.506,100.245,31.689,1014.002,0.000,0.000,270.000,9.265,405.89,2,-9.00,9,-9.00,0.10,12.12,316.44,18.87,255.64
AOML_Explorer,Ex0740NE,272.156,29092007,3:44:37,40.376,-72.375,420.18,-9.00,1014.13,1010.80,20.65,20.39,32.290,1.495,100.137,31.678,1014.126,0.000,0.000,262.000,9.265,404.93,2,-9.00,9,-9.00,0.12,12.83,311.64,18.89,254.76
AOML_Explorer,Ex0740NE,272.158,29092007,3:47:10,40.376,-72.375,420.01,-9.00,1013.94,1010.70,20.61,20.46,32.262,1.492,100.234,31.671,1013.940,0.000,0.000,268.000,11.323,406.45,2,-9.00,9,-9.00,0.11,14.10,320.04,18.88,255.17
AOML_Explorer,Ex0740NE,272.160,29092007,3:49:43,40.376,-72.375,418.55,-9.00,1013.97,1010.50,20.59,20.49,32.291,1.496,100.323,31.664,1013.972,0.000,0.000,299.000,9.265,406.13,2,-9.00,9,-9.00,0.11,9.07,335.66,18.82,257.06
AOML_Explorer,Ex0740NE,272.161,29092007,3:52:16,40.376,-72.375,416.88,-9.00,1013.99,1010.60,20.63,20.53,32.374,1.471,100.343,31.659,1013.990,0.000,0.000,265.000,10.294,404.49,2,-9.00,9,-9.00,0.11,13.50,315.87,18.79,255.10
AOML_Explorer,Ex0740NE,272.163,29092007,3:54:49,40.376,-72.375,415.84,-9.00,1013.98,1010.60,20.66,20.56,32.462,1.492,100.291,31.655,1013.976,0.000,0.000,277.000,10.294,403.21,2,-9.00,9,-9.00,0.11,12.26,323.84,18.86,255.20
AOML_Explorer,Ex0740NE,272.165,29092007,3:57:22,40.376,-72.375,414.64,-9.00,1013.99,1010.70,20.69,20.60,32.507,1.504,100.609,31.649,1013.994,0.000,0.000,278.000,9.779,402.31,2,-9.00,9,-9.00,0.11,11.76,322.73,18.91,259.15
AOML_Explorer,Ex0740NE,272.167,29092007,3:59:55,40.376,-72.375,413.34,-9.00,1014.12,1010.80,20.71,20.71,32.582,1.531,100.452,31.645,1014.119,0.000,0.000,275.000,9.265,402.50,2,-9.00,9,-9.00,0.11,11.64,319.92,18.9,257.69
AOML_Explorer,Ex0740NE,272.182,29092007,4:21:40,40.383,-72.213,406.21,-9.00,1013.98,1010.20,20.70,20.42,32.526,1.498,100.281,31.656,1013.980,0.000,0.000,278.000,10.809,391.09,2,-9.00,9,-9.00,0.12,12.58,325.22,18.97,255.28
AOML_Explorer,Ex0740NE,272.183,29092007,4:24:13,40.383,-72.213,407.87,-9.00,1013.86,1010.40,20.61,20.50,32.599,1.492,100.217,31.655,1013.859,0.000,0.000,278.000,8.750,395.29,2,-9.00,9,-9.00,0.11,10.89,319.18,18.98,258.05
AOML_Explorer,Ex0740NE,272.185,29092007,4:26:46,40.383,-72.213,409.56,-9.00,1014.00,1010.60,20.61,20.57,32.662,1.500,100.475,31.645,1014.003,0.000,0.000,281.000,9.779,398.29,2,-9.00,9,-9.00,0.11,11.36,324.68,18.97,254.38
AOML_Explorer,Ex0740NE,272.187,29092007,4:29:19,40.383,-72.213,409.50,-9.00,1013.95,1010.30,20.66,20.67,32.757,1.510,100.499,31.641,1013.946,0.000,0.000,283.000,8.235,398.93,2,-9.00,9,-9.00,0.10,10.01,319.78,18.99,255.14
AOML_Explorer,Ex0740NE,272.189,29092007,4:31:52,40.383,-72.213,408.76,-9.00,1013.98,1010.70,20.73,20.76,32.813,1.509,100.459,31.635,1013.983,0.000,0.000,278.000,8.235,398.61,2,-9.00,9,-9.00,0.09,10.51,317.60,19.01,252.08
AOML_Explorer,Ex0740NE,272.191,29092007,4:34:25,40.383,-72.213,407.15,-9.00,1013.99,1010.60,20.81,20.89,32.963,1.471,100.310,31.628,1013.991,0.000,0.000,274.000,9.779,397.68,2,-9.00,9,-9.00,0.09,12.15,319.66,18.98,250.95
AOML_Explorer,Ex0740NE,272.192,29092007,4:36:58,40.383,-72.213,405.73,-9.00,1014.02,1010.40,20.89,21.00,33.195,1.512,100.663,31.621,1014.022,0.000,0.000,271.000,7.721,396.84,2,-9.00,9,-9.00,0.08,10.76,311.37,19.09,249.17
AOML_Explorer,Ex0740NE,272.194,29092007,4:39:31,40.383,-72.213,403.63,-9.00,1013.91,1010.60,21.00,21.02,33.357,1.480,100.522,31.614,1013.906,0.000,0.000,283.000,8.750,393.18,2,-9.00,9,-9.00,0.08,10.34,322.79,19.05,247.98
AOML_Explorer,Ex0740NE,272.196,29092007,4:42:04,40.383,-72.213,400.54,-9.00,1014.03,1010.50,21.10,21.05,33.294,1.507,100.347,31.603,1014.026,0.000,0.000,272.000,8.235,389.01,2,-9.00,9,-9.00,0.08,11.04,314.63,19.13,247.66
AOML_Explorer,Ex0740NE,272.198,29092007,4:44:37,40.383,-72.213,397.24,-9.00,1013.98,1010.60,21.13,21.06,33.334,1.489,100.526,31.600,1013.982,0.000,0.000,286.000,10.809,385.45,2,-9.00,9,-9.00,0.08,11.68,330.66,19.23,250.82
AOML_Explorer,Ex0740NE,272.199,29092007,4:47:10,40.383,-72.213,395.62,-9.00,1013.91,1010.20,21.15,21.06,33.373,1.447,100.783,31.593,1013.913,0.000,0.000,284.000,11.323,383.48,2,-9.00,9,-9.00,0.08,12.45,323.96,19.29,248.95
AOML_Explorer,Ex0740NE,272.201,29092007,4:49:43,40.383,-72.213,394.62,-9.00,1013.95,1010.10,21.16,21.04,33.400,1.517,100.350,31.589,1013.953,0.000,0.000,299.000,13.382,382.10,2,-9.00,9,-9.00,0.07,12.31,336.88,19.29,248.78
AOML_Explorer,Ex0740NE,272.203,29092007,4:52:16,40.383,-72.213,393.69,-9.00,1013.82,1009.80,21.17,20.99,33.387,1.487,100.334,31.578,1013.821,0.000,0.000,297.000,14.412,380.37,2,-9.00,9,-9.00,0.08,13.47,335.48,19.23,254.19
AOML_Explorer,Ex0740NE,272.205,29092007,4:54:49,40.383,-72.213,392.68,-9.00,1013.78,1009.70,21.15,20.94,33.368,1.488,100.595,31.572,1013.779,0.000,0.000,291.000,13.897,378.76,2,-9.00,9,-9.00,0.08,13.91,326.50,19.22,265.93
AOML_Explorer,Ex0740NE,272.207,29092007,4:57:22,40.383,-72.213,391.88,-9.00,1013.62,1009.80,21.12,20.77,33.279,1.501,100.661,31.567,1013.625,0.000,0.000,298.000,15.441,375.76,2,-9.00,9,-9.00,0.09,14.41,332.97,19.16,259.36
AOML_Explorer,Ex0740NE,272.208,29092007,4:59:55,40.383,-72.213,391.39,-9.00,1013.57,1009.60,21.06,20.74,33.217,1.444,100.943,31.562,1013.574,0.000,0.000,301.000,15.441,375.87,2,-9.00,9,-9.00,0.09,14.13,333.21,19.12,258.80
AOML_Explorer,Ex0740NE,272.223,29092007,5:21:40,40.461,-71.875,387.74,-9.00,1013.76,1010.70,20.61,20.51,33.150,1.485,100.477,31.581,1013.762,14.200,13.100,324.000,16.470,375.93,2,-9.00,9,-9.00,0.10,12.13,311.94,18.83,289.30
AOML_Explorer,Ex0740NE,272.225,29092007,5:24:13,40.471,-71.872,387.32,-9.00,1013.72,1010.30,20.62,20.58,33.174,1.453,100.522,31.578,1013.716,13.500,13.300,321.000,17.500,376.43,2,-9.00,9,-9.00,0.10,13.41,308.10,18.84,270.91
AOML_Explorer,Ex0740NE,272.227,29092007,5:26:46,40.480,-71.869,387.12,-9.00,1013.65,1010.20,20.67,20.57,33.187,1.475,100.684,31.575,1013.647,14.600,13.600,322.000,16.985,375.36,2,-9.00,9,-9.00,0.10,12.77,309.32,18.76,259.12
AOML_Explorer,Ex0740NE,272.229,29092007,5:29:19,40.489,-71.866,387.54,-9.00,1013.59,1010.20,20.71,20.60,33.157,1.481,100.628,31.571,1013.586,15.400,13.600,313.000,16.470,375.52,2,-9.00,9,-9.00,0.10,13.35,298.04,18.82,255.55
AOML_Explorer,Ex0740NE,272.230,29092007,5:31:52,40.499,-71.863,387.93,-9.00,1013.71,1010.40,20.72,20.53,33.120,1.503,100.649,31.567,1013.706,14.700,13.600,314.000,15.956,374.71,2,-9.00,9,-9.00,0.11,12.71,298.62,18.77,253.44
AOML_Explorer,Ex0740NE,272.232,29092007,5:34:25,40.508,-71.860,388.69,-9.00,1013.73,1010.10,20.74,20.45,33.051,1.501,100.606,31.560,1013.725,15.100,13.500,318.000,16.470,374.00,2,-9.00,9,-9.00,0.11,12.77,304.11,18.76,254.71
AOML_Explorer,Ex0740NE,272.234,29092007,5:36:58,40.517,-71.857,390.07,-9.00,1013.78,1010.40,20.70,20.34,32.980,1.489,100.523,31.556,1013.776,13.800,13.400,323.000,16.470,374.25,2,-9.00,9,-9.00,0.11,12.20,309.49,18.73,254.87
AOML_Explorer,Ex0740NE,272.236,29092007,5:39:31,40.527,-71.854,391.71,-9.00,1013.70,1010.40,20.63,20.32,32.914,1.511,100.519,31.546,1013.699,13.400,13.400,317.000,15.956,376.62,2,-9.00,9,-9.00,0.11,12.34,301.76,18.74,254.10
AOML_Explorer,Ex0740NE,272.238,29092007,5:42:04,40.536,-71.851,393.84,-9.00,1013.70,1010.00,20.54,20.42,32.901,1.488,100.410,31.537,1013.698,14.000,13.400,314.000,16.470,381.71,2,-9.00,9,-9.00,0.10,13.20,298.95,18.74,257.34
AOML_Explorer,Ex0740NE,272.239,29092007,5:44:37,40.545,-71.848,396.00,-9.00,1013.69,1010.50,20.52,20.42,32.859,1.500,100.500,31.532,1013.687,13.900,13.500,320.000,18.015,383.96,2,-9.00,9,-9.00,0.10,13.94,308.41,18.7,257.07
AOML_Explorer,Ex0740NE,272.241,29092007,5:47:10,40.554,-71.845,398.01,-9.00,1013.65,1010.20,20.58,20.33,32.710,1.521,100.192,31.524,1013.654,13.600,13.300,315.000,15.956,383.58,2,-9.00,9,-9.00,0.11,12.64,298.86,18.69,257.81
AOML_Explorer,Ex0740NE,272.243,29092007,5:49:43,40.564,-71.842,400.50,-9.00,1013.60,1009.90,20.58,20.23,32.499,1.489,100.375,31.519,1013.603,13.600,13.300,321.000,18.015,384.27,2,-9.00,9,-9.00,0.11,13.86,309.88,18.67,257.23
AOML_Explorer,Ex0740NE,272.245,29092007,5:52:16,40.573,-71.839,404.26,-9.00,1013.52,1010.40,20.52,20.18,32.341,1.467,100.465,31.511,1013.518,14.700,13.100,319.000,16.985,388.13,2,-9.00,9,-9.00,0.12,13.16,306.29,18.6,259.15
AOML_Explorer,Ex0740NE,272.246,29092007,5:54:49,40.582,-71.836,407.90,-9.00,1013.66,1010.10,20.43,20.14,32.263,1.517,100.329,31.507,1013.658,14.300,13.100,314.000,16.985,392.53,2,-9.00,9,-9.00,0.12,13.68,300.76,18.58,257.83
AOML_Explorer,Ex0740NE,272.248,29092007,5:57:22,40.591,-71.833,409.00,-9.00,1013.52,1009.50,20.39,20.10,32.178,1.543,102.433,31.500,1013.518,15.600,13.200,314.000,18.529,393.62,2,-9.00,9,-9.00,0.11,15.28,302.28,18.54,261.75
AOML_Explorer,Ex0740NE,272.250,29092007,5:59:55,40.600,-71.830,409.20,-9.00,1013.60,1009.90,20.35,20.09,32.114,1.491,100.326,31.493,1013.601,14.200,13.300,320.000,16.470,394.35,2,-9.00,9,-9.00,0.12,12.56,306.28,18.52,261.78